Regional Weather Roundup
Issued by NWS

Home | Current Version | Previous Version | Text Only | Print | Product List | Glossary Off
Versions: 1 2 3 4 5 6 7 8 9 10 11 12 13 14 15 16 17 18 19 20 21 22 23 24 25 26 27 28 29 30 31 32 33 34 35 36 37 38 39 40 41 42 43 44 45 46 47 48 49 50

000
ASUS43 KLSX 211459
RWRMO

WEATHER SUMMARY FOR MISSOURI
NATIONAL WEATHER SERVICE SPRINGFIELD MO
1000 AM CDT THU AUG 21 2014

NOTE: "FAIR" INDICATES FEW OR NO CLOUDS BELOW 12,000 FEET WITH NO
       SIGNIFICANT WEATHER AND/OR OBSTRUCTIONS TO VISIBILITY.
       CURRENT SKY AND/OR WEATHER CONDITIONS ARE NOT AVAILABLE FOR
       CHILLICOTHE AND FARMINGTON.

MOZ001>031-035>038-043-044-053-054-211600-
...NORTHERN AND WESTERN MISSOURI...

CITY           SKY/WX    TMP DP  RH WIND       PRES   REMARKS
KANSAS CTY INT PTSUNNY   82  72  71 SW16G23   29.91S
KANSAS C DTWN  MOSUNNY   86  71  60 SW17      29.91S HX  91
LEE`S SUMMIT   SUNNY     83  71  67 SW16G25   29.94S
ST JOSEPH      PTSUNNY   81  73  76 SW8       29.89R
KIRKSVILLE     SUNNY     82  72  71 SW13G22   29.94R

$$
MOZ066>068-077>081-088>096-101>105-211600-
...SOUTHWEST MISSOURI...

CITY           SKY/WX    TMP DP  RH WIND       PRES   REMARKS
SPRINGFIELD    SUNNY     84  70  62 SW15      30.03S
JOPLIN         SUNNY     85  71  63 SW18G26   30.01R HX  90

$$
MOZ032>034-039>042-045>050-055>058-069>072-211600-
...CENTRAL MISSOURI...

CITY           SKY/WX    TMP DP  RH WIND       PRES   REMARKS
COLUMBIA       SUNNY     82  73  74 SW13      29.99R
JEFFERSON CITY SUNNY     82  72  71 S7        29.98S
ROLLA          SUNNY     82  71  69 SW13      30.03R
SEDALIA        SUNNY     84  71  65 SW14      29.97S
OSAGE BEACH    SUNNY     84  72  65 SW10      30.01R

$$
MOZ051-052-059>065-211600-
...EAST CENTRAL MISSOURI...

CITY           SKY/WX    TMP DP  RH WIND       PRES   REMARKS
ST LOUIS INTL  PTSUNNY   84  72  67 SW12      30.01S
SPIRIT OF STL  MOSUNNY   83  72  69 SW14      29.99S
ST CHARLES     SUNNY     82  72  71 SW9       29.99F

$$
MOZ072>076-082>087-097>100-106>115-211600-
...SOUTH CENTRAL AND SOUTHEAST MISSOURI...

CITY           SKY/WX    TMP DP  RH WIND       PRES   REMARKS
CAPE GIRARDEAU SUNNY     83  75  77 SW9       30.06R HX  90
FARMINGTON     SUNNY     84  72  65 SW12G18   30.07S
POPLAR BLUFF   SUNNY     83  71  67 S9        30.05R
WEST PLAINS    SUNNY     83  70  64 SW9G20    30.09R

$$


USA.gov is the U.S. government's official web portal to all federal, state and local government web resources and services.